Weather in Yazvikha

Russia / Tver Oblast     57°21′39″N   35°32′26″E
temp.,
°C
wind,
m/s
gust,
m/s
humid.,
%
clouds,
%
prec.,
mm/h
press.,
hPa
HPBL,
m
13 april, tue
tue1300:00+9se3982100 0.0 1026299
03:00+7se3893100 0.0 1025207
06:00+7se2796100 0.0 1024164
09:00+11s3780100 0.0 1023308
12:00+16s4858100 0.0 1022768
15:00+19s5948100 0.0 10211667
18:00+17sse3858100 0.0 1020254
21:00+12sse3117392 0.0 1020224
14 april, wed
wed1400:00+11sse312717 0.0 1019255
03:00+8sse2108121 0.0 1019217
06:00+9sse2979100 0.0 1018218
09:00+13s4106889 0.0 1018535
12:00+16ssw4761100 0.0 10171118
15:00+17s465779 0.7 10171318
18:00+15s267024 0.3 1016367
21:00+12sw2586100 1.3 1018116
15 april, thu
thu1500:00+10n259760 0.0 1018143
03:00+9n4797100 0.1 1018316
06:00+7nne4896100 0.9 1019343
09:00+8ne4992100 1.4 1019369
12:00+8nne5989100 0.1 1020548
15:00+7ne51087100 0.1 1021616
18:00+6ne51187100 0.0 1021572
21:00+5ne51390100 0.0 1022508
16 april, fri
fri1600:00+5ne5139198 0.0 1022555
03:00+4ne5149086 0.0 1023559
06:00+3ne5139394 0.0 1023498
09:00+6ne6117830 0.0 1024574
12:00+10ene696446 0.0 1024910
15:00+12ene685876 0.0 10231208
18:00+10ene5963100 0.0 10241057
21:00+8ne51165100 0.0 1025756
17 april, sat
sat1700:00+6ene51363100 0.0 1025599
03:00+3ne412765 0.0 1028343
06:00+2ne4127899 0.0 1030320
09:00+6ene51057100 0.0 1030619
12:00+10ene573945 0.0 10301303
15:00+11ne57395 0.0 10311516
18:00+10ne57502 0.0 10311279
21:00+5ne311660 0.0 1032334